{"data":{"norad_id":65446,"epoch":"2026-05-25T03:26:18.432960Z","epoch_age_seconds":72930,"freshness":"FRESH","line1":"1 65446U 25194N   26145.14326890  .00004083  00000+0  28677-3 0  9994","line2":"2 65446  97.4484 359.4005 0001888  69.5904 290.5526 15.05659000 41158","mean_motion":15.05659,"eccentricity":0.0001888,"inclination_deg":97.4484,"raan_deg":359.4005,"arg_perigee_deg":69.5904,"mean_anomaly_deg":290.5526,"bstar":0.00028677,"rev_number":4115,"period_min":95.639185233841,"perigee_km":548.17561280952,"apogee_km":550.79148232828,"semimajor_km":6927.6205475689,"source":"CELESTRAK","updated_at":"2026-05-25T13:38:20.808262Z"}}